TimeMST,TemperatureF,Dew PointF,Humidity,Sea Level PressureIn,VisibilityMPH,Wind Direction,Wind SpeedMPH,Gust SpeedMPH,PrecipitationIn,Events,Conditions,WindDirDegrees,DateUTC
12:18 AM,14.0,12.2,93,30.52,-9999.0,North,-9999.0,-,N/A,,Overcast,0,2013-03-02 07:18:00
12:38 AM,14.0,12.2,93,30.52,-9999.0,North,-9999.0,-,N/A,,Overcast,0,2013-03-02 07:38:00
12:58 AM,14.0,12.2,93,30.52,-9999.0,North,-9999.0,-,N/A,,Overcast,0,2013-03-02 07:58:00
1:18 AM,14.0,12.2,93,30.53,-9999.0,North,-9999.0,-,N/A,,Overcast,0,2013-03-02 08:18:00
1:38 AM,14.0,12.2,93,30.53,-9999.0,North,-9999.0,-,N/A,,Overcast,0,2013-03-02 08:38:00
1:58 AM,14.0,12.2,93,30.52,-9999.0,North,-9999.0,-,N/A,,Overcast,0,2013-03-02 08:58:00
2:18 AM,14.0,12.2,93,30.52,-9999.0,North,-9999.0,-,N/A,,Overcast,0,2013-03-02 09:18:00
2:38 AM,14.0,12.2,93,30.52,-9999.0,North,-9999.0,-,N/A,,Overcast,0,2013-03-02 09:38:00
2:58 AM,14.0,12.2,93,30.52,-9999.0,North,-9999.0,-,N/A,,Mostly Cloudy,0,2013-03-02 09:58:00
3:18 AM,15.8,12.2,86,30.53,-9999.0,North,-9999.0,-,N/A,,Unknown,0,2013-03-02 10:18:00
3:38 AM,15.8,12.2,86,30.53,-9999.0,North,-9999.0,-,N/A,,Unknown,0,2013-03-02 10:38:00
3:58 AM,14.0,12.2,93,30.52,-9999.0,North,-9999.0,-,N/A,,Mostly Cloudy,0,2013-03-02 10:58:00
4:18 AM,14.0,12.2,93,30.53,-9999.0,North,-9999.0,-,N/A,,Overcast,0,2013-03-02 11:18:00
4:38 AM,14.0,12.2,93,30.53,-9999.0,North,-9999.0,-,N/A,,Unknown,0,2013-03-02 11:38:00
4:58 AM,15.8,12.2,86,30.54,-9999.0,North,-9999.0,-,N/A,,Unknown,0,2013-03-02 11:58:00
5:18 AM,15.8,14.0,93,30.54,-9999.0,North,-9999.0,-,N/A,,Unknown,0,2013-03-02 12:18:00
5:38 AM,15.8,14.0,93,30.54,-9999.0,North,-9999.0,-,N/A,,Unknown,0,2013-03-02 12:38:00
5:58 AM,17.6,14.0,86,30.54,-9999.0,North,-9999.0,-,N/A,,Unknown,0,2013-03-02 12:58:00
6:18 AM,17.6,14.0,86,30.54,-9999.0,North,-9999.0,-,N/A,,Unknown,0,2013-03-02 13:18:00
6:38 AM,15.8,12.2,86,30.55,-9999.0,North,-9999.0,-,N/A,,Unknown,0,2013-03-02 13:38:00
6:58 AM,15.8,12.2,86,30.56,-9999.0,North,-9999.0,-,N/A,,Unknown,0,2013-03-02 13:58:00
7:18 AM,17.6,14.0,86,30.55,-9999.0,North,-9999.0,-,N/A,,Unknown,0,2013-03-02 14:18:00
7:38 AM,15.8,12.2,86,30.55,-9999.0,North,-9999.0,-,N/A,,Overcast,0,2013-03-02 14:38:00
7:58 AM,15.8,14.0,93,30.56,-9999.0,North,-9999.0,-,N/A,,Overcast,0,2013-03-02 14:58:00
8:18 AM,17.6,14.0,86,30.55,-9999.0,North,-9999.0,-,N/A,,Overcast,0,2013-03-02 15:18:00
8:38 AM,17.6,14.0,86,30.56,-9999.0,North,-9999.0,-,N/A,,Overcast,0,2013-03-02 15:38:00
8:58 AM,17.6,14.0,86,30.56,-9999.0,North,-9999.0,-,N/A,,Overcast,0,2013-03-02 15:58:00
9:18 AM,17.6,15.8,93,30.56,-9999.0,SW,24.2,32.2,N/A,,Overcast,230,2013-03-02 16:18:00
9:38 AM,19.4,15.8,86,30.56,-9999.0,SW,24.2,29.9,N/A,,Overcast,220,2013-03-02 16:38:00
9:58 AM,19.4,15.8,86,30.56,-9999.0,SW,24.2,-,N/A,,Mostly Cloudy,230,2013-03-02 16:58:00
10:18 AM,19.4,17.6,93,30.56,-9999.0,SW,25.3,-,N/A,,Unknown,230,2013-03-02 17:18:00
10:38 AM,19.4,17.6,93,30.56,-9999.0,SW,24.2,29.9,N/A,,Unknown,230,2013-03-02 17:38:00
10:58 AM,19.4,17.6,93,30.55,-9999.0,WSW,27.6,-,N/A,,Unknown,240,2013-03-02 17:58:00
11:18 AM,19.4,17.6,93,30.55,-9999.0,WSW,27.6,33.4,N/A,,Unknown,240,2013-03-02 18:18:00
11:38 AM,21.2,19.4,93,30.55,-9999.0,WSW,28.8,35.7,N/A,,Unknown,240,2013-03-02 18:38:00
11:58 AM,21.2,19.4,93,30.54,-9999.0,SW,29.9,-,N/A,,Unknown,230,2013-03-02 18:58:00
12:18 PM,21.2,19.4,93,30.54,-9999.0,SW,28.8,38.0,N/A,,Unknown,230,2013-03-02 19:18:00
12:38 PM,23.0,21.2,93,30.54,-9999.0,West,28.8,33.4,N/A,,Unknown,260,2013-03-02 19:38:00
12:58 PM,23.0,21.2,93,30.53,-9999.0,West,24.2,31.1,N/A,,Unknown,260,2013-03-02 19:58:00
1:18 PM,23.0,21.2,93,30.53,-9999.0,WSW,21.9,29.9,N/A,,Unknown,250,2013-03-02 20:18:00
1:38 PM,23.0,21.2,93,30.53,-9999.0,WSW,23.0,29.9,N/A,,Unknown,250,2013-03-02 20:38:00
1:58 PM,23.0,21.2,93,30.52,-9999.0,West,25.3,31.1,N/A,,Unknown,260,2013-03-02 20:58:00
2:18 PM,24.8,21.2,86,30.52,-9999.0,WSW,24.2,33.4,N/A,,Unknown,250,2013-03-02 21:18:00
2:38 PM,26.6,19.4,74,30.52,-9999.0,WSW,26.5,-,N/A,,Clear,250,2013-03-02 21:38:00
2:58 PM,28.4,17.6,64,30.52,-9999.0,West,25.3,32.2,N/A,,Clear,260,2013-03-02 21:58:00
3:18 PM,28.4,17.6,64,30.52,-9999.0,West,24.2,32.2,N/A,,Clear,260,2013-03-02 22:18:00
3:38 PM,28.4,17.6,64,30.52,-9999.0,West,24.2,29.9,N/A,,Clear,270,2013-03-02 22:38:00
3:58 PM,28.4,17.6,64,30.51,-9999.0,SW,20.7,26.5,N/A,,Clear,220,2013-03-02 22:58:00
4:18 PM,28.4,17.6,64,30.51,-9999.0,WSW,23.0,29.9,N/A,,Clear,240,2013-03-02 23:18:00
4:38 PM,28.4,17.6,64,30.51,-9999.0,West,26.5,-,N/A,,Clear,260,2013-03-02 23:38:00
4:58 PM,26.6,17.6,69,30.51,-9999.0,West,25.3,32.2,N/A,,Clear,260,2013-03-02 23:58:00
5:18 PM,28.4,17.6,64,30.49,-9999.0,West,33.4,-,N/A,,Clear,260,2013-03-03 00:18:00
5:38 PM,26.6,15.8,64,30.49,-9999.0,West,31.1,-,N/A,,Clear,260,2013-03-03 00:38:00
5:58 PM,26.6,15.8,64,30.48,-9999.0,WSW,29.9,-,N/A,,Clear,250,2013-03-03 00:58:00
6:18 PM,24.8,15.8,69,30.48,-9999.0,WSW,31.1,35.7,N/A,,Clear,250,2013-03-03 01:18:00
6:38 PM,23.0,14.0,68,30.48,-9999.0,West,28.8,-,N/A,,Clear,260,2013-03-03 01:38:00
6:58 PM,23.0,14.0,68,30.48,-9999.0,WSW,29.9,-,N/A,,Clear,250,2013-03-03 01:58:00
7:18 PM,23.0,14.0,68,30.48,-9999.0,West,29.9,-,N/A,,Clear,260,2013-03-03 02:18:00
7:38 PM,23.0,14.0,68,30.48,-9999.0,West,28.8,-,N/A,,Clear,260,2013-03-03 02:38:00
7:58 PM,23.0,14.0,68,30.48,-9999.0,West,28.8,-,N/A,,Clear,270,2013-03-03 02:58:00
8:18 PM,24.8,14.0,64,30.47,-9999.0,West,33.4,-,N/A,,Clear,270,2013-03-03 03:18:00
8:38 PM,24.8,12.2,59,30.47,-9999.0,West,29.9,-,N/A,,Clear,270,2013-03-03 03:38:00
8:58 PM,24.8,14.0,64,30.46,-9999.0,West,32.2,-,N/A,,Clear,270,2013-03-03 03:58:00
9:18 PM,24.8,12.2,59,30.46,-9999.0,West,35.7,-,N/A,,Clear,270,2013-03-03 04:18:00
9:38 PM,24.8,12.2,59,30.46,-9999.0,West,33.4,-,N/A,,Clear,270,2013-03-03 04:38:00
9:58 PM,24.8,12.2,59,30.46,-9999.0,West,28.8,-,N/A,,Clear,270,2013-03-03 04:58:00
10:18 PM,24.8,12.2,59,30.45,-9999.0,West,27.6,-,N/A,,Clear,270,2013-03-03 05:18:00
10:38 PM,23.0,12.2,63,30.45,-9999.0,West,21.9,-,N/A,,Clear,270,2013-03-03 05:38:00
10:58 PM,23.0,12.2,63,30.44,-9999.0,WSW,24.2,-,N/A,,Clear,240,2013-03-03 05:58:00
11:18 PM,21.2,14.0,74,30.43,-9999.0,WSW,25.3,29.9,N/A,,Clear,240,2013-03-03 06:18:00
11:38 PM,21.2,14.0,74,30.42,-9999.0,WSW,24.2,-,N/A,,Clear,240,2013-03-03 06:38:00
11:58 PM,21.2,14.0,74,30.39,-9999.0,WSW,28.8,-,N/A,,Clear,240,2013-03-03 06:58:00